Location: Recife
(8.0585°S, 34.8848°W)
Time: 07:39:59
(UTC-03:00)

Courier 1B - Pass Details

Date: 21 April 2026
Orbit: 962 x 1209 km, 28.3° (Epoch: 13 May)

Event Time Altitude Azimuth Distance (km) Brightness Sun altitude
Rises 13:20:26 0° 248° (WSW) 4,061 11.0 53.6°
Reaches altitude 10° 13:23:23 10° 252° (WSW) 3,070 10.6 53.0°
Maximum altitude 13:30:48 58° 329° (NNW) 1,286 10.0 51.4°
Drops below altitude 10° 13:37:46 10° 47° (NE) 2,885 10.0 49.9°
Sets 13:40:28 0° 51° (NE) 3,800 10.4 49.3°
